Location: Coed Ely
(51.5661°N, 3.4150°W)
Time: 20:03:26
(UTC+00:00)

NOSS 2-2 (C) - Pass Details

Date: 28 January 2021
Orbit: 463 x 1745 km, 63.3° (Epoch: 26 February)

Event Time Altitude Azimuth Distance (km) Brightness Sun altitude
Rises 19:10:33 0° 315° (NW) 2,993 7.7 -20.7°
Reaches altitude 10° 19:12:35 10° 317° (NW) 2,211 6.9 -21.1°
Maximum altitude 19:17:39 72° 42° (NE) 939 4.2 -21.8°
Enters shadow 19:20:08 39° 117° (ESE) 1,440 4.9 -22.2°
